[[{"header":{"parameterUnit":"m.s-1","parameterCategory":1,"la1":30.2991,"la2":30.254,"lo1":-89.0895,"lo2":-89.0444,"dy":0.0017,"dx":0.0017,"nx":28,"ny":28,"refTime":"2023-09-20T03:00:00:Z","depth":0,"parameterNumber":2,"parameterNumberName":"U-component_of_WINDS"},"data":[0,0,0,0,0,0,0,0,0,0,0,0,0,0,0,0,0,0,0,0,0,0,0,0,0,0,0,0,0,0,0,0,0,0,0,0,0,0,0,0,0,0,0,0,0,0,0,0,0,0,0,0,0,0,0,0,0,0,-2.2189,-2.219,0,-2.2259,-2.226,-2.2261,-2.2225,-2.2223,-2.2221,-2.2219,-2.2293,-2.2296,-2.23,0,0,0,0,0,0,0,0,0,0,0,0,0,-2.2026,-2.2029,-2.2189,-2.219,-2.2191,-2.2259,-2.226,-2.2261,-2.2225,-2.2223,-2.2221,-2.2218,-2.2291,-2.2296,-2.23,0,0,0,0,0,0,0,0,0,0,0,0,0,-2.2097,-2.203,-2.2189,-2.2181,-2.2181,-2.2259,-2.226,-2.2261,-2.2226,-2.2223,-2.222,-2.2217,-2.229,-2.2295,-2.2301,-2.2391,0,0,-2.2318,-2.232,0,0,0,0,0,0,0,0,-2.2093,-2.2103,-2.2182,-2.2182,-2.2182,-2.223,-2.2229,-2.2305,-2.2226,-2.2209,-2.2219,-2.2216,-2.2274,-2.2281,-2.23,-2.2394,-2.2397,-2.2318,-2.2322,-2.2324,-2.2326,0,0,0,0,0,0,0,-2.2088,-2.21,-2.2217,-2.2183,-2.2183,-2.2175,-2.2182,-2.2244,-2.2256,-2.221,-2.2208,-2.2216,-2.2274,-2.2295,-2.2302,-2.2398,-2.2318,-2.2323,-2.2326,-2.2329,-2.257,-2.2573,0,0,0,0,0,0,-2.2083,-2.2096,-2.2215,-2.2219,-2.213,-2.218,-2.2188,-2.2218,-2.2256,-2.2259,-2.2219,-2.2214,-2.2287,-2.2295,-2.2304,-2.2412,-2.2324,-2.2329,-2.2332,-2.2567,-2.2571,-2.2574,0,0,0,0,0,0,-2.208,-2.2094,-2.2212,-2.2157,-2.2171,-2.2186,-2.222,-2.2221,-2.2242,-2.2262,-2.2264,-2.2238,-2.2285,-2.2296,-2.2369,-2.2414,-2.2332,-2.2337,-2.2563,-2.2568,-2.2572,-2.2629,0,0,0,0,0,0,-2.2075,-2.2093,-2.2127,-2.2158,-2.2174,-2.2276,-2.2223,-2.2224,-2.2251,-2.2246,-2.2281,-2.2284,-2.2284,-2.2361,-2.2375,-2.242,-2.2341,-2.2559,-2.2565,-2.2571,-2.2623,-2.2635,-2.2645,0,0,0,0,0,-2.207,-2.2141,-2.2129,-2.2144,-2.2217,-2.2278,-2.2288,-2.2286,-2.2255,-2.2289,-2.2302,-2.2283,-2.2407,-2.2369,-2.2384,-2.2432,-2.2557,-2.2564,-2.257,-2.2618,-2.2632,-2.2644,0,0,0,0,0,0,-2.2115,-2.2144,-2.2132,-2.2215,-2.2244,-2.2272,-2.2316,-2.2301,-2.2341,-2.2335,-2.2331,-2.2339,-2.2415,-2.2431,-2.2388,-2.2521,-2.2477,-2.2487,-2.2508,-2.2522,-2.2533,-2.2527,-2.2346,0,0,0,0,0,-2.2135,-2.2182,-2.2205,-2.2276,-2.2291,-2.2301,-2.2328,-2.2324,-2.2355,-2.2367,-2.2385,-2.2417,-2.2463,-2.2493,-2.2537,-2.2625,-2.2632,-2.2665,-2.2676,-2.2685,-2.2694,-2.2742,-2.2757,-2.2597,-2.2597,-2.2597,0,0,-2.2176,-2.2198,-2.2228,-2.2286,-2.2308,-2.2357,-2.2312,-2.2366,-2.2403,-2.2375,-2.2445,-2.246,-2.2495,-2.2576,-2.2612,-2.2591,-2.274,-2.2694,-2.2701,-2.2705,-2.2751,-2.2766,-2.2779,-2.2602,-2.2601,-2.26,0,0,-2.2277,-2.2298,-2.2359,-2.2382,-2.2417,-2.2423,-2.2437,-2.2468,-2.2476,-2.2546,-2.2527,-2.2571,-2.265,-2.2675,-2.2699,-2.2809,-2.2792,-2.2823,-2.288,-2.2927,-2.294,-2.2951,-2.299,-2.3004,-2.2832,-2.2832,-2.2832,0,-2.2324,-2.2397,-2.2393,-2.2448,-2.2474,-2.2451,-2.2514,-2.2537,-2.2584,-2.2603,-2.2578,-2.2677,-2.2699,-2.2785,-2.2812,-2.2832,-2.2849,-2.2819,-2.2938,-2.2949,-2.2959,-2.2997,-2.3012,-2.2835,-2.2835,-2.2835,-2.2834,0,-2.2453,-2.2504,-2.255,-2.2595,-2.2626,-2.2685,-2.269,-2.2723,-2.2716,-2.2725,-2.2796,-2.2821,-2.287,-2.289,-2.2884,-2.2976,-2.2962,-2.2938,-2.2894,-2.2978,-2.3014,-2.3028,-2.2841,-2.2839,-2.2838,-2.2837,0,0,-2.2585,-2.2627,-2.2644,-2.2664,-2.27,-2.2739,-2.2797,-2.2844,-2.2872,-2.2905,-2.2954,-2.3021,-2.2999,-2.3026,-2.3023,-2.3064,-2.3149,-2.3034,-2.3035,-2.3055,-2.3253,-2.3271,-2.3287,-2.3138,-2.3141,-2.3143,-2.325,0,-2.2688,-2.2788,-2.2786,-2.288,-2.2927,-2.2906,-2.2956,-2.2984,-2.2994,-2.3036,-2.3046,-2.3095,-2.3061,-2.3077,-2.3117,-2.3131,-2.3189,-2.3123,-2.3184,-2.3186,-2.3176,-2.3306,-2.3325,-2.3424,-2.3263,-2.3266,-2.3267,0,-2.2822,-2.2858,-2.2956,-2.2985,-2.3005,-2.305,-2.3093,-2.3133,-2.3164,-2.3168,-2.3198,-2.3188,-2.3248,-2.3202,-2.3284,-2.3239,-2.3264,-2.3274,-2.3278,-2.3284,-2.3232,-2.3315,-2.3456,-2.3471,-2.3289,-2.3287,-2.3286,0,-2.2908,-2.2982,-2.305,-2.3068,-2.3104,-2.3136,-2.3153,-2.3181,-2.3209,-2.3246,-2.3265,-2.3309,-2.3333,-2.3368,-2.3371,-2.3337,-2.3453,-2.3407,-2.3459,-2.3459,-2.3485,-2.3483,-2.3631,-2.3501,-2.35,-2.35,-2.35,0,-2.3023,-2.3084,-2.309,-2.3132,-2.3199,-2.3196,-2.3264,-2.3277,-2.3303,-2.3347,-2.3332,-2.3374,-2.3375,-2.3419,-2.3422,-2.3489,-2.35,-2.3506,-2.3506,-2.3507,-2.3507,-2.3524,-2.3517,-2.3504,-2.3503,-2.3502,-2.3502,0,-2.3132,-2.3137,-2.321,-2.3238,-2.3246,-2.3295,-2.3318,-2.3359,-2.3367,-2.3423,-2.3437,-2.345,-2.35,-2.3506,-2.3565,-2.3567,-2.3649,-2.3641,-2.3638,-2.3637,-2.3688,-2.3683,-2.3853,-2.3875,-2.373,-2.3731,-2.3732,0,-2.3205,-2.3251,-2.3283,-2.3311,-2.3329,-2.3376,-2.3404,-2.3403,-2.3433,-2.3472,-2.3508,-2.3557,-2.3596,-2.3677,-2.3693,-2.3738,-2.3732,-2.3788,-2.3738,-2.3738,-2.3733,-2.373,-2.3735,-2.3798,-2.3799,-2.38,-2.3801,0,-2.3335,-2.3335,-2.3376,-2.3419,-2.3453,-2.3486,-2.3517,-2.3542,-2.3545,-2.358,-2.3631,-2.3661,-2.3721,-2.377,-2.3814,-2.3832,-2.3818,-2.3817,-2.3831,-2.3833,-2.383,-2.3833,-2.3664,-2.3813,-2.3812,-2.3811,-2.381,-2.381,-2.3428,-2.3468,-2.3497,-2.3543,-2.3566,-2.3596,-2.3635,-2.3647,-2.369,-2.3738,-2.3735,-2.3791,-2.3821,-2.388,-2.39,-2.3945,-2.3926,-2.3947,-2.3952,-2.3958,-2.3963,-2.3822,-2.3953,-2.3953,-2.3952,-2.3952,-2.3952,0,-2.3557,-2.3574,-2.3617,-2.3661,-2.3697,-2.368,-2.3714,-2.3746,-2.3795,-2.3824,-2.3862,-2.3921,-2.3968,-2.3987,-2.4033,-2.4065,-2.406,-2.4078,-2.4075,-2.408,-2.3977,-2.396,-2.4081,-2.4081,-2.4081,-2.4081,-2.4081,-2.4081,-2.3629,-2.3696,-2.3699,-2.3778,-2.3795,-2.3849,-2.387,-2.3897,-2.392,-2.3986,-2.4025,-2.4036,-2.4062,-2.4109,-2.4152,-2.4156,-2.4174,-2.4195,-2.4197,-2.41,-2.4087,-2.4074,-2.4058,-2.4199,-2.4199,-2.4296,-2.4297,-2.4297]},{"header":{"parameterUnit":"m.s-1","parameterCategory":1,"la1":30.2991,"la2":30.254,"lo1":-89.0895,"lo2":-89.0444,"dy":0.0017,"dx":0.0017,"nx":28,"ny":28,"refTime":"2023-09-20T03:00:00:Z","depth":0,"parameterNumber":3,"parameterNumberName":"V-component_of_WINDS"},"data":[0,0,0,0,0,0,0,0,0,0,0,0,0,0,0,0,0,0,0,0,0,0,0,0,0,0,0,0,0,0,0,0,0,0,0,0,0,0,0,0,0,0,0,0,0,0,0,0,0,0,0,0,0,0,0,0,0,0,4.1796,4.1796,0,4.184,4.184,4.1841,4.1802,4.1801,4.1799,4.1798,4.1839,4.1841,4.1844,0,0,0,0,0,0,0,0,0,0,0,0,0,4.1673,4.1675,4.1796,4.1796,4.1797,4.184,4.184,4.1841,4.1803,4.1801,4.1799,4.1797,4.1838,4.1841,4.1844,0,0,0,0,0,0,0,0,0,0,0,0,0,4.1723,4.1676,4.1796,4.1783,4.1782,4.184,4.184,4.1841,4.1803,4.1801,4.1798,4.1796,4.1837,4.1841,4.1844,4.1915,0,0,4.1856,4.1858,0,0,0,0,0,0,0,0,4.172,4.1727,4.1784,4.1784,4.1783,4.1813,4.1812,4.1866,4.1804,4.1795,4.1798,4.1795,4.1832,4.1836,4.1849,4.1917,4.1919,4.1856,4.1859,4.186,4.1861,0,0,0,0,0,0,0,4.1716,4.1725,4.1813,4.1785,4.1785,4.1773,4.1778,4.1822,4.1826,4.1796,4.1793,4.1799,4.1831,4.1846,4.185,4.192,4.1856,4.186,4.1862,4.1864,4.2044,4.2047,0,0,0,0,0,0,4.1715,4.1722,4.1812,4.1814,4.1745,4.1777,4.1782,4.1806,4.1825,4.1826,4.1801,4.1797,4.184,4.1846,4.1851,4.1932,4.186,4.1864,4.1866,4.2042,4.2045,4.2047,0,0,0,0,0,0,4.1712,4.1723,4.181,4.1768,4.1778,4.1782,4.1809,4.1808,4.1823,4.1829,4.1829,4.1815,4.1839,4.1846,4.1899,4.1933,4.1866,4.1869,4.2039,4.2043,4.2046,4.2097,0,0,0,0,0,0,4.1709,4.1723,4.1751,4.1769,4.178,4.1859,4.1811,4.1811,4.183,4.1825,4.1843,4.1844,4.1837,4.1894,4.1903,4.1937,4.1872,4.2036,4.204,4.2045,4.2092,4.2102,4.2111,0,0,0,0,0,4.1705,4.1764,4.1753,4.1764,4.1816,4.1861,4.1867,4.186,4.1833,4.186,4.1864,4.1843,4.1929,4.1899,4.191,4.1946,4.2033,4.2039,4.2044,4.2088,4.21,4.2111,0,0,0,0,0,0,4.1749,4.1766,4.1754,4.182,4.184,4.1854,4.1888,4.1873,4.19,4.1894,4.1883,4.1887,4.1942,4.195,4.1917,4.2014,4.1976,4.1984,4.2006,4.2018,4.2027,4.2022,4.1875,0,0,0,0,0,4.1766,4.1803,4.1815,4.1873,4.1883,4.1884,4.1904,4.1896,4.1915,4.1923,4.1931,4.1949,4.1979,4.1999,4.2028,4.2095,4.2096,4.2124,4.2133,4.2141,4.2147,4.2179,4.219,4.2066,4.2066,4.2066,0,0,4.1802,4.1816,4.184,4.1882,4.1896,4.1931,4.1891,4.1932,4.1957,4.1928,4.1978,4.1985,4.2004,4.2063,4.209,4.2071,4.2182,4.2148,4.2154,4.2156,4.2186,4.2197,4.2208,4.207,4.2069,4.2068,0,0,4.1886,4.1902,4.1949,4.1964,4.1986,4.1987,4.1998,4.2016,4.2019,4.207,4.2048,4.2078,4.2132,4.2145,4.2159,4.2247,4.2227,4.2257,4.2303,4.2334,4.2344,4.2353,4.238,4.2391,4.2263,4.2263,4.2263,0,4.1927,4.1982,4.1976,4.2017,4.2034,4.2012,4.2058,4.2073,4.2103,4.2114,4.2094,4.2159,4.2171,4.2231,4.2252,4.2266,4.2276,4.2253,4.2344,4.2352,4.236,4.2386,4.2397,4.2267,4.2266,4.2266,4.2266,0,4.203,4.2068,4.2104,4.2134,4.2156,4.22,4.2198,4.2221,4.2212,4.2213,4.2264,4.2277,4.2306,4.2321,4.2313,4.2379,4.2367,4.2346,4.2307,4.2375,4.2399,4.2409,4.2271,4.227,4.2269,4.2268,0,0,4.214,4.2166,4.2179,4.2191,4.2213,4.2241,4.2284,4.2314,4.2331,4.2353,4.2386,4.2432,4.2411,4.2427,4.242,4.2449,4.2513,4.2423,4.2423,4.2436,4.2583,4.2596,4.2608,4.2501,4.2503,4.2505,4.258,0,4.2222,4.2295,4.229,4.2359,4.2392,4.237,4.2406,4.2423,4.2426,4.2453,4.2456,4.2487,4.246,4.2469,4.2496,4.2499,4.2541,4.2494,4.2528,4.2529,4.252,4.2621,4.2636,4.2706,4.259,4.2592,4.2593,0,4.2326,4.2351,4.2423,4.2438,4.2452,4.2484,4.251,4.2538,4.2555,4.2555,4.2572,4.256,4.26,4.2564,4.2616,4.2584,4.2598,4.2602,4.2604,4.2604,4.2563,4.262,4.2729,4.2738,4.2608,4.2607,4.2606,0,4.2394,4.2447,4.2495,4.2507,4.2527,4.255,4.2559,4.2574,4.2592,4.2614,4.2625,4.2652,4.2665,4.2686,4.268,4.2655,4.2733,4.2697,4.2731,4.2731,4.2746,4.2744,4.2854,4.2761,4.2761,4.2761,4.2761,0,4.2483,4.2527,4.2526,4.2556,4.2603,4.2597,4.2643,4.265,4.2663,4.2692,4.2676,4.2703,4.2696,4.2723,4.2719,4.2761,4.2769,4.2767,4.2765,4.2767,4.2766,4.2773,4.2766,4.2764,4.2763,4.2763,4.2762,0,4.2567,4.2568,4.2619,4.2634,4.2639,4.2673,4.2684,4.2711,4.2713,4.275,4.2758,4.276,4.279,4.2788,4.2822,4.2819,4.287,4.2864,4.2864,4.2861,4.2894,4.289,4.301,4.3023,4.2925,4.2926,4.2927,0,4.2621,4.2654,4.2673,4.2691,4.2702,4.2733,4.275,4.2745,4.2764,4.2785,4.2809,4.2838,4.286,4.2909,4.2912,4.2937,4.2929,4.297,4.2933,4.2932,4.2925,4.2922,4.2923,4.2976,4.2977,4.2978,4.2978,0,4.2717,4.2716,4.2743,4.277,4.2792,4.2812,4.2831,4.2847,4.2843,4.2865,4.2896,4.2913,4.2947,4.2975,4.2999,4.3006,4.299,4.2991,4.2999,4.2999,4.2996,4.2994,4.288,4.2987,4.2986,4.2985,4.2985,4.2985,4.2785,4.2812,4.2829,4.2859,4.2872,4.289,4.2915,4.292,4.2946,4.2974,4.297,4.3003,4.3018,4.3048,4.3058,4.3083,4.3068,4.3082,4.3084,4.3087,4.3089,4.2996,4.3088,4.3087,4.3087,4.3087,4.3087,0,4.2877,4.2887,4.2914,4.2941,4.2964,4.295,4.2969,4.2988,4.3018,4.3034,4.3056,4.309,4.3117,4.3123,4.3148,4.3166,4.316,4.3173,4.3169,4.3171,4.3102,4.3091,4.3177,4.3177,4.3177,4.3177,4.3177,4.3177,4.2927,4.2971,4.2972,4.3022,4.3031,4.3064,4.3076,4.3091,4.3103,4.3142,4.3164,4.3169,4.3179,4.3205,4.3228,4.3229,4.3237,4.3252,4.325,4.3185,4.3176,4.3167,4.3156,4.3255,4.3255,4.3315,4.3316,4.3316]}]]